| time (UTC) | temp F | wind direction | speed MPH | gust MPH | rain 1hr in | rain 24hr in | rain mn in | humidity % | barometer mb |
| 20260504050106 | 56 | 234 | 4.0 | 10.0 | 0.00 | 0.00 | 0.00 | 100 | 1017.3 |
| 20260504044547 | 56 | 210 | 3.0 | 9.0 | 0.00 | 0.00 | 0.00 | 100 | 1017.4 |
| 20260504043049 | 55 | 234 | 0.0 | 4.0 | 0.00 | 0.00 | 0.00 | 100 | 1017.3 |
| 20260504041542 | 55 | 210 | 1.0 | 5.0 | 0.00 | 0.00 | 0.00 | 100 | 1017.4 |
| 20260504040051 | 54 | 201 | 0.0 | 3.0 | 0.00 | 0.00 | 0.00 | 100 | 1017.3 |
| 20260504034543 | 54 | 208 | 2.0 | 4.0 | 0.00 | 0.00 | 0.00 | 100 | 1017.2 |
| 20260504033047 | 53 | 250 | 0.0 | 3.0 | 0.00 | 0.00 | 0.00 | 100 | 1017.2 |
| 20260504031550 | 53 | 214 | 1.0 | 3.0 | 0.00 | 0.00 | 0.00 | 100 | 1017.1 |
| 20260504030040 | 51 | 36 | 1.0 | 3.0 | 0.00 | 0.00 | 0.00 | 100 | 1017.1 |
| 20260504024614 | 49 | 0 | 1.0 | 3.0 | 0.00 | 0.00 | 0.00 | 100 | 1017.3 |
| 20260504023049 | 47 | 0 | 0.0 | 1.0 | 0.00 | 0.00 | 0.00 | 100 | 1017.1 |
| 20260504021543 | 46 | 0 | 0.0 | 0.0 | 0.00 | 0.00 | 0.00 | 100 | 1017.2 |
| 20260504020048 | 45 | 0 | 0.0 | 0.0 | 0.00 | 0.00 | 0.00 | 100 | 1017.1 |
| 20260504014545 | 46 | 0 | 0.0 | 0.0 | 0.00 | 0.00 | 0.00 | 100 | 1016.9 |
| 20260504013054 | 46 | 0 | 0.0 | 0.0 | 0.00 | 0.00 | 0.00 | 100 | 1016.9 |
| 20260504011548 | 47 | 0 | 0.0 | 0.0 | 0.00 | 0.00 | 0.00 | 100 | 1016.8 |
| 20260504010046 | 48 | 0 | 0.0 | 0.0 | 0.00 | 0.00 | 0.00 | 100 | 1016.7 |
| 20260504004546 | 48 | 0 | 0.0 | 0.0 | 0.00 | 0.00 | 0.00 | 100 | 1016.5 |
| 20260504003046 | 50 | 0 | 0.0 | 0.0 | 0.00 | 0.00 | 0.00 | 100 | 1016.3 |
| 20260504001546 | 51 | 0 | 0.0 | 0.0 | 0.00 | 0.00 | 0.00 | 100 | 1016.2 |
| 20260504000113 | 53 | 0 | 0.0 | 0.0 | 0.00 | 0.00 | 0.00 | 100 | 1016.0 |
| 20260503234551 | 54 | 0 | 0.0 | 0.0 | 0.00 | 0.00 | 0.00 | 100 | 1015.8 |
| 20260503233041 | 56 | 0 | 0.0 | 1.0 | 0.00 | 0.00 | 0.00 | 100 | 1015.8 |
| 20260503231541 | 57 | 301 | 1.0 | 4.0 | 0.00 | 0.00 | 0.00 | 100 | 1015.8 |
| 20260503230050 | 58 | 355 | 0.0 | 5.0 | 0.00 | 0.00 | 0.00 | 100 | 1015.7 |
| 20260503224546 | 58 | 336 | 2.0 | 9.0 | 0.00 | 0.00 | 0.00 | 100 | 1015.8 |
| 20260503223042 | 58 | 328 | 2.0 | 8.0 | 0.00 | 0.00 | 0.00 | 100 | 1015.7 |
| 20260503221549 | 58 | 338 | 3.0 | 9.0 | 0.00 | 0.00 | 0.00 | 100 | 1015.8 |
| 20260503220048 | 59 | 346 | 4.0 | 12.0 | 0.00 | 0.00 | 0.00 | 100 | 1015.7 |
| 20260503214546 | 59 | 311 | 7.0 | 15.0 | 0.00 | 0.00 | 0.00 | 100 | 1015.5 |
| 20260503213041 | 59 | 42 | 6.0 | 14.0 | 0.00 | 0.00 | 0.00 | 100 | 1015.7 |
| 20260503211540 | 59 | 319 | 5.0 | 12.0 | 0.00 | 0.00 | 0.00 | 100 | 1015.6 |
| 20260503210041 | 59 | 277 | 7.0 | 12.0 | 0.00 | 0.00 | 0.00 | 100 | 1015.5 |
| 20260503204548 | 59 | 317 | 7.0 | 17.0 | 0.00 | 0.00 | 0.00 | 100 | 1015.4 |
| 20260503203057 | 60 | 36 | 7.0 | 13.0 | 0.00 | 0.00 | 0.00 | 100 | 1015.6 |
| 20260503201549 | 59 | 9 | 5.0 | 18.0 | 0.00 | 0.00 | 0.00 | 100 | 1015.5 |
| 20260503200049 | 59 | 13 | 8.0 | 16.0 | 0.00 | 0.00 | 0.00 | 100 | 1015.9 |
| 20260503194553 | 58 | 342 | 8.0 | 19.0 | 0.00 | 0.00 | 0.00 | 100 | 1016.1 |
| 20260503193051 | 58 | 13 | 8.0 | 16.0 | 0.00 | 0.00 | 0.00 | 100 | 1016.4 |
| 20260503191553 | 58 | 44 | 10.0 | 19.0 | 0.00 | 0.00 | 0.00 | 100 | 1016.6 |
| 20260503190048 | 57 | 323 | 9.0 | 19.0 | 0.00 | 0.00 | 0.00 | 100 | 1016.8 |
| 20260503184549 | 58 | 338 | 8.0 | 17.0 | 0.00 | 0.00 | 0.00 | 100 | 1016.7 |
| 20260503183045 | 57 | 18 | 6.0 | 17.0 | 0.00 | 0.00 | 0.00 | 100 | 1016.9 |
| 20260503181546 | 57 | 9 | 5.0 | 16.0 | 0.00 | 0.00 | 0.00 | 100 | 1017.0 |
| 20260503180052 | 57 | 282 | 10.0 | 19.0 | 0.00 | 0.00 | 0.00 | 100 | 1017.2 |
| 20260503174545 | 56 | 267 | 7.0 | 17.0 | 0.00 | 0.00 | 0.00 | 100 | 1017.3 |
| 20260503173055 | 56 | 318 | 8.0 | 24.0 | 0.00 | 0.00 | 0.00 | 100 | 1017.4 |
| 20260503171542 | 56 | 342 | 4.0 | 17.0 | 0.00 | 0.00 | 0.00 | 100 | 1017.3 |
| 20260503081538 | 50 | 17 | 5.0 | 13.0 | 0.00 | 0.00 | 0.00 | 100 | 1013.8 |